Wind_Speed
24 24 23 22 22 25 25 24 22 22 20 19 17 15 13 11 10 9 11 10 12 3 11 13 20 17 12 10 10 7 6 5 4 3 3 4 5 4 5 10 6 4 5 7 6 4 5 3 3 3 3 6 7 7
23 24 23 22 22 23 23 23 23 23 22 20 18 16 15 14 12 11 8 9 9 5 6 27 32 31 25 24 11 10 5 4 2 4 3 4 4 2 4 4 6 2 1 5 5 2 3 7 7 1 1 7 5 4
23 23 24 23 23 24 24 25 24 24 23 22 20 18 17 16 15 12 16 14 10 3 8 10 13 29 31 37 35 11 8 9 4 1 1 1 5 2 3 0 5 8 13 5 9 12 18 5 6 5 7 7 8 9
22 23 24 24 24 24 24 24 25 24 24 23 21 19 17 16 16 14 15 18 9 3 4 9 16 20 34 32 23 34 23 13 5 3 4 2 3 5 1 5 2 4 6 9 6 12 19 18 23 10 5 14 15 13
23 24 24 24 24 24 24 25 25 26 26 25 24 22 19 17 17 18 21 21 16 3 3 8 26 20 8 9 19 17 19 13 3 2 3 2 4 3 4 3 2 3 3 4 3 11 4 8 16 29 11 16 14 11
24 25 25 25 25 25 25 28 32 35 31 29 28 25 21 19 16 13 3 5 4 5 3 4 8 11 10 14 11 9 11 6 5 5 3 2 5 4 3 2 4 2 2 5 2 2 3 4 19 26 21 5 9 14
23 25 26 28 29 31 33 36 38 38 36 32 29 22 18 15 13 5 5 3 7 15 2 4 5 5 14 6 2 4 6 4 4 3 2 2 2 2 3 2 3 4 5 8 7 5 8 17 8 16 21 9 18 18
24 26 29 31 34 36 36 36 38 39 35 32 27 21 15 11 11 10 12 12 12 3 1 3 4 4 6 3 4 2 2 2 2 2 1 2 3 2 1 5 3 5 10 7 5 8 10 9 15 17 18 16 19 14
25 28 31 33 36 38 35 38 41 37 34 29 21 19 3 4 4 4 8 7 9 1 2 2 3 3 4 3 3 3 3 0 1 1 0 1 2 1 5 1 4 5 7 11 10 8 8 12 8 5 4 10 11 15
28 30 33 35 39 38 33 39 43 36 30 18 7 1 2 5 6 8 3 2 1 1 1 3 2 4 3 2 4 2 3 2 2 2 3 3 3 4 7 7 6 10 11 10 7 8 9 10 7 6 4 2 6 7
30 32 34 37 39 34 36 43 37 32 12 6 3 1 9 2 2 2 1 2 2 2 3 4 5 3 3 2 1 2 1 2 1 2 1 3 4 5 9 10 9 8 9 10 7 8 9 7 4 4 6 6 7 7
31 33 34 37 37 33 39 41 32 18 10 11 13 12 5 2 2 3 3 3 4 3 5 3 4 5 3 1 2 3 2 2 3 2 3 3 4 6 11 5 1 3 1 4 5 6 5 4 3 6 7 7 4 4
32 33 34 35 29 35 43 38 28 23 21 2 2 3 1 2 5 4 5 4 3 2 2 4 3 2 2 1 1 3 1 4 2 4 2 3 6 10 12 9 5 6 8 12 5 2 8 3 8 12 9 13 13 10
32 33 33 28 24 40 41 33 22 20 4 3 3 7 4 4 3 6 4 5 7 7 8 6 3 3 3 4 1 3 4 4 3 4 4 3 8 9 7 5 5 8 10 7 8 10 12 9 7 12 11 13 13 11
30 32 24 14 35 38 29 22 20 10 4 3 5 6 8 10 13 10 2 4 6 5 3 4 2 1 3 4 4 4 4 5 4 1 2 5 8 4 8 10 11 12 10 8 7 7 6 8 5 6 14 15 16 18
29 24 5 31 31 28 17 22 10 3 4 1 2 11 8 10 12 14 11 12 12 11 1 5 6 5 9 4 7 8 4 5 4 3 6 5 7 8 12 11 10 9 11 10 7 10 14 10 6 7 10 12 12 14
22 4 24 26 30 16 11 8 4 3 3 3 6 10 8 10 10 10 10 11 10 12 11 4 7 8 3 5 4 3 1 3 3 3 2 3 5 6 7 7 9 10 9 9 10 13 14 18 16 11 6 13 19 13
6 19 20 22 26 16 7 4 4 3 7 10 8 11 10 9 10 12 12 13 9 9 8 8 5 8 6 7 5 5 4 6 6 5 6 10 7 6 7 7 7 9 8 13 14 18 20 21 9 7 19 7 17 21
22 19 17 18 15 7 4 4 3 4 6 6 8 9 8 9 10 12 12 13 15 10 5 4 7 6 7 6 9 5 5 6 3 3 3 5 10 8 7 11 10 10 13 16 16 11 17 23 20 20 20 20 10 14
7 9 18 9 10 4 3 4 4 3 4 5 6 7 8 8 8 10 11 12 8 8 10 7 7 6 6 6 5 6 5 4 5 3 5 7 11 13 10 10 6 14 15 16 19 21 18 18 20 20 19 18 17 14
6 10 6 5 3 5 2 3 3 2 2 3 5 4 3 7 10 12 11 9 8 12 10 7 7 8 11 15 21 20 16 10 6 8 4 2 6 9 8 14 17 18 14 14 10 14 16 13 17 19 17 20 21 20
6 9 5 4 2 4 2 4 1 3 1 0 2 2 2 5 5 6 5 10 10 6 5 7 8 7 9 13 16 23 23 22 20 20 21 17 10 10 9 15 14 9 15 17 17 16 17 18 22 22 15 17 17 20
10 5 4 3 1 2 4 2 1 1 1 2 3 2 2 2 3 4 3 5 4 9 14 12 14 17 12 14 22 26 30 25 14 15 19 16 17 23 23 24 25 21 15 21 22 21 18 21 23 22 22 24 19 17
5 4 4 4 1 2 3 3 0 2 2 3 1 3 4 2 2 3 3 7 7 13 11 12 16 10 13 15 8 16 22 24 21 20 24 22 10 17 22 23 25 26 25 23 21 21 22 22 24 24 24 23 22 20
3 4 1 5 4 3 3 2 1 2 3 2 3 4 2 3 3 3 3 5 7 7 8 14 13 8 6 7 10 18 25 23 19 11 24 17 18 20 21 20 24 25 25 21 21 23 22 22 23 24 22 20 20 20
2 2 1 7 4 3 2 4 4 4 5 4 5 3 3 2 4 3 2 4 5 5 5 6 5 5 7 12 9 13 18 23 23 18 21 21 23 20 15 11 11 18 23 19 21 20 19 21 23 22 21 22 23 21
7 10 7 3 3 2 4 5 5 6 5 5 4 3 2 4 3 1 3 6 3 8 6 8 10 12 10 13 16 17 20 22 21 19 16 21 23 22 19 15 14 18 18 18 17 16 18 18 16 16 16 16 20 21
3 5 5 8 1 2 4 6 7 4 6 2 3 6 3 3 2 2 2 7 4 7 11 5 14 16 17 16 17 17 18 20 20 21 18 20 21 20 20 19 19 20 19 18 14 13 14 15 16 17 19 18 18 19
4 3 2 2 5 4 3 3 5 6 7 5 5 3 3 2 2 2 5 12 14 5 11 13 16 17 17 16 17 17 18 18 16 13 14 9 12 16 18 17 17 18 17 19 13 15 19 15 15 16 16 15 16 16
5 6 3 4 3 3 4 4 5 6 8 9 8 7 5 4 2 6 10 12 11 10 12 11 12 13 12 12 13 14 18 17 17 15 9 8 13 14 16 19 18 19 18 18 17 16 17 16 16 15 15 13 13 14
5 6 3 5 5 7 6 7 6 6 5 7 7 5 3 2 3 6 9 13 13 13 13 12 9 11 10 11 12 11 8 12 13 14 13 11 12 12 14 16 16 17 17 14 14 15 14 13 12 12 13 13 14 15
3 3 2 3 4 6 6 6 6 4 3 3 2 3 3 1 1 2 10 13 12 11 14 15 12 13 12 12 12 10 6 9 8 8 10 10 10 11 13 15 15 16 18 13 11 12 13 13 13 13 14 14 14 16
3 2 2 4 5 6 5 5 3 2 4 2 3 3 3 2 1 4 11 13 10 11 11 12 11 13 12 12 11 11 4 5 4 5 8 13 11 9 9 9 13 16 18 15 15 15 16 16 15 16 16 16 16 18
Wind_Direction
345 346 344 342 341 342 344 346 346 348 346 340 338 332 327 325 325 317 279 277 231 216 266 257 266 269 275 274 285 331 338 4 284 206 258 184 209 230 290 271 314 63 9 268 205 163 234 55 332 62 211 86 50 55
352 353 352 347 343 344 347 347 346 344 341 337 333 328 323 319 314 317 282 295 275 255 274 284 278 274 271 267 282 284 259 175 293 293 352 330 235 172 308 271 74 128 266 299 329 156 313 24 120 69 64 84 65 353
351 351 349 346 343 345 347 344 342 339 337 334 329 324 320 319 314 299 289 295 293 273 280 251 258 269 253 241 238 251 257 246 219 231 301 235 294 212 226 304 301 15 32 307 329 5 344 223 141 292 58 62 40 41
350 348 348 344 339 338 340 340 338 337 335 331 327 321 316 311 309 302 297 289 272 280 275 286 303 310 295 296 263 218 235 259 123 357 271 280 236 274 65 256 234 67 337 315 279 4 344 7 349 286 170 91 70 48
347 347 346 343 341 341 340 338 336 330 326 325 323 318 309 306 305 303 289 280 265 202 283 294 301 287 360 335 257 277 207 228 142 123 258 254 286 300 239 209 65 89 60 339 332 325 297 322 337 1 47 86 87 72
346 347 345 343 340 337 335 335 336 336 326 318 315 316 309 296 300 315 312 46 67 210 308 298 327 292 340 331 314 282 213 210 186 175 216 202 243 279 296 41 98 89 305 284 290 56 154 302 21 5 353 65 95 85
341 340 338 335 332 330 328 325 328 329 323 316 313 304 303 294 272 252 259 193 224 314 265 293 298 305 316 300 228 232 187 187 226 146 206 259 308 314 319 29 28 225 272 288 241 262 29 38 16 20 353 24 66 61
337 336 334 333 333 334 332 330 330 331 323 321 315 303 297 286 266 259 277 270 248 195 212 278 281 289 347 291 194 169 165 99 36 112 319 312 303 228 274 355 324 355 326 207 101 79 106 107 46 25 2 351 46 45
334 333 332 332 333 334 332 331 333 332 326 322 311 306 271 192 219 239 227 171 157 141 241 228 273 297 2 280 14 34 42 280 97 220 130 302 296 255 318 277 7 13 1 111 126 127 109 88 89 67 343 349 28 42
329 330 331 331 333 333 332 334 336 335 330 322 329 358 249 203 216 153 138 127 120 214 189 251 234 261 266 63 355 317 181 202 187 76 51 9 319 313 42 35 21 42 19 17 107 112 111 100 101 91 73 23 27 27
325 328 330 332 333 331 335 339 339 340 352 341 334 345 358 123 203 235 278 192 170 249 212 237 219 252 194 258 240 153 137 65 109 157 121 6 347 7 38 36 23 31 49 39 45 34 37 45 48 59 70 68 60 47
322 325 328 331 331 328 335 340 342 342 323 309 292 303 272 228 289 311 279 227 202 254 180 229 228 211 276 243 28 13 29 195 64 55 52 24 299 331 345 341 335 309 114 143 142 160 159 146 109 76 51 26 23 63
320 323 327 330 326 330 335 341 336 328 326 294 235 236 132 91 351 330 327 291 278 233 195 217 249 190 148 122 172 225 263 56 60 44 34 282 309 319 328 310 278 231 250 272 220 321 89 88 81 82 64 57 39 25
320 322 327 326 327 331 334 331 334 334 321 282 306 359 24 326 209 254 238 284 286 261 281 276 217 171 184 186 240 61 49 41 59 35 344 299 305 320 294 239 247 205 203 182 99 92 87 72 61 75 88 77 65 56
321 322 330 332 331 328 327 322 324 315 272 342 11 351 7 337 341 326 171 251 263 260 284 315 82 145 71 52 28 44 57 54 44 314 285 316 321 334 20 47 48 55 51 53 53 52 68 102 100 73 78 73 70 60
324 328 331 331 327 331 322 331 322 249 241 87 307 5 354 349 351 352 8 357 6 6 47 33 14 33 32 29 15 22 36 23 11 10 19 10 355 22 55 53 44 48 58 45 33 49 31 12 65 62 69 60 52 59
328 254 318 336 337 334 329 324 283 267 5 59 5 3 5 1 358 356 355 6 4 24 26 42 43 36 12 25 38 27 44 333 340 358 83 319 316 45 52 46 50 60 39 39 61 55 2 32 53 39 57 45 31 26
292 312 338 350 347 347 314 345 323 358 32 8 24 12 22 14 13 16 27 14 18 23 31 49 45 28 29 22 53 30 23 22 31 50 31 30 15 46 70 62 50 66 58 65 85 89 29 34 40 30 29 77 41 49
313 324 346 356 342 323 305 10 353 348 59 18 30 24 14 29 36 36 29 33 35 32 40 39 43 32 31 40 47 34 33 89 64 322 302 340 8 43 54 54 54 59 60 55 43 54 55 47 36 23 16 12 35 42
332 329 346 336 322 285 346 336 343 12 17 18 41 26 32 42 34 44 41 29 24 35 47 54 61 47 44 22 0 15 346 84 122 12 11 22 358 34 31 38 32 68 58 49 53 56 51 46 31 8 6 33 14 13
360 335 343 343 254 253 0 334 4 55 325 17 38 34 8 35 41 39 37 22 39 40 44 53 67 56 49 39 28 19 12 10 36 27 346 348 339 321 23 48 59 56 51 38 38 50 54 44 15 3 32 18 14 34
324 339 309 275 357 349 326 337 334 303 343 19 50 66 25 29 31 24 23 40 45 37 31 25 35 58 47 40 27 19 10 14 36 22 16 23 30 22 32 32 45 55 52 40 34 30 27 21 19 1 19 22 20 34
336 311 265 249 341 56 263 202 313 21 90 13 355 27 26 41 37 10 47 11 26 27 22 24 23 42 34 49 47 27 15 12 13 21 10 12 37 42 49 44 43 37 32 23 21 16 10 17 6 10 24 25 22 51
317 300 322 313 171 284 339 305 238 266 217 98 112 30 13 24 73 64 53 32 21 19 17 13 21 15 18 15 52 41 26 13 9 9 13 358 48 45 64 51 41 33 23 11 12 17 19 19 25 23 32 22 11 10
347 313 272 298 251 267 225 264 26 10 337 336 128 142 249 41 28 56 41 12 10 14 348 9 6 355 6 16 36 46 35 26 8 359 6 20 39 37 30 41 47 26 12 13 18 14 10 14 23 15 12 16 4 350
21 171 132 351 351 1 354 354 358 357 12 14 22 94 90 113 63 37 338 308 311 353 355 348 325 359 37 35 49 49 44 38 20 4 358 43 43 36 28 27 32 14 360 22 18 6 10 19 15 7 2 358 357 22
18 6 324 17 78 334 340 31 15 27 30 17 345 357 121 79 71 81 249 262 315 332 340 343 6 30 26 39 48 58 54 46 29 1 15 52 48 36 25 32 33 9 11 24 13 16 27 13 359 357 359 13 29 24
203 210 269 307 264 217 44 33 15 17 350 35 14 34 51 46 65 101 242 293 330 310 327 347 57 46 39 46 43 43 56 48 31 17 24 38 38 31 20 19 18 16 9 7 14 35 21 19 14 14 22 23 25 13
209 224 240 342 37 44 40 57 29 30 357 7 67 65 75 68 81 326 330 306 315 35 44 41 51 44 31 33 41 45 62 53 38 26 16 14 17 14 10 13 9 11 10 359 25 53 30 36 41 34 24 26 24 6
217 180 228 121 60 94 50 74 66 91 92 87 98 106 115 107 66 322 346 2 1 45 45 33 60 60 35 30 30 42 75 67 57 42 7 1 7 4 3 7 12 10 6 359 2 20 20 20 25 22 23 15 15 359
161 211 152 129 122 135 144 128 119 114 103 96 97 135 146 121 330 309 327 9 8 46 35 8 32 76 51 34 41 24 45 77 63 47 28 15 12 9 2 12 9 1 355 5 18 28 19 16 21 15 11 11 9 3
291 33 114 124 125 141 179 177 172 171 153 146 139 138 116 132 199 323 27 11 12 31 39 21 37 64 53 44 34 15 47 79 75 58 41 35 27 17 2 14 7 1 352 11 20 22 22 20 20 17 12 10 7 360
352 43 357 163 155 164 168 171 205 180 136 145 158 126 92 72 52 63 31 26 62 65 51 23 51 75 67 50 29 7 80 86 107 79 61 41 24 4 356 3 11 8 3 15 9 16 16 16 16 19 14 11 8 7
Height
827 822 817 813 809 804 799 794 789 785 781 777 773 770 768 766 764 762 759 759 759 754 744 743 736 732 726 721 720 712 712 718 707 695 694 692 690 679 673 644 642 645 655 633 630 633 642 589 590 616 612 596 597 595
825 821 816 812 807 802 797 794 789 785 780 777 773 770 767 764 762 760 756 754 753 747 739 734 726 725 725 718 719 714 715 720 719 706 700 698 679 675 672 654 623 658 650 661 642 624 602 596 599 596 597 596 597 595
824 820 815 810 805 801 797 793 788 783 778 774 771 768 765 762 759 758 754 752 751 745 733 724 715 707 707 707 709 717 707 705 708 712 703 702 684 673 673 662 651 645 651 649 643 623 617 594 604 604 590 594 597 599
823 818 813 809 804 799 795 790 785 781 776 772 768 764 761 758 756 754 752 749 748 744 736 714 705 701 695 695 696 699 695 701 705 710 700 697 691 675 672 674 662 656 662 662 644 635 621 613 622 605 596 596 603 603
821 816 811 806 802 797 792 786 782 777 772 769 764 761 757 755 752 749 745 742 742 744 733 717 705 689 686 684 686 686 690 694 704 713 700 697 686 674 663 657 656 663 670 672 663 655 652 648 641 626 604 605 611 614
820 815 810 805 800 795 790 784 778 772 767 762 758 755 753 751 749 747 741 739 738 739 735 722 697 686 684 681 682 681 680 682 686 696 695 694 685 677 665 655 659 664 662 665 662 660 661 651 637 634 635 617 614 613
818 813 808 803 797 792 786 778 772 766 760 754 750 747 745 745 747 747 740 738 737 738 736 725 706 685 679 676 676 674 673 677 681 686 689 684 679 676 665 661 667 670 666 662 657 655 654 655 660 656 648 631 621 623
815 810 805 800 793 787 780 772 765 760 750 745 741 739 739 739 739 738 731 729 732 736 735 728 715 696 687 681 675 669 674 678 680 683 687 683 681 678 670 670 667 663 660 659 661 659 660 659 658 655 657 656 636 642
813 807 801 795 789 782 775 767 758 751 741 735 732 732 733 736 734 728 727 727 729 735 728 727 718 698 692 682 678 681 681 685 683 686 687 690 678 673 675 672 666 664 662 659 666 664 661 661 667 670 673 668 660 652
810 804 798 791 784 777 771 763 751 744 735 731 730 731 729 728 727 727 728 729 731 731 733 726 718 708 692 688 686 687 684 682 681 688 690 694 686 678 674 674 673 669 667 665 666 668 668 669 671 673 674 668 663 664
807 801 795 787 780 772 767 759 749 741 734 733 731 727 730 728 727 725 721 725 728 725 724 716 710 704 687 687 680 683 679 690 695 688 692 694 689 682 681 680 678 676 675 675 674 673 673 673 674 672 671 671 671 669
803 797 791 784 777 769 763 756 748 743 743 742 740 735 731 727 723 722 715 711 709 703 701 699 692 691 687 686 684 682 684 684 680 685 694 702 696 688 688 685 687 686 686 686 684 679 680 679 677 677 676 675 673 669
799 793 787 780 773 766 759 753 747 743 738 737 736 733 726 730 732 725 714 704 697 691 686 687 684 682 684 686 688 686 681 679 686 701 712 708 699 693 690 687 685 686 685 683 678 677 675 677 677 677 676 675 674 672
794 788 783 777 771 764 755 749 747 742 739 733 729 739 732 729 737 727 713 705 694 684 678 676 675 679 679 680 677 676 685 691 702 707 709 705 699 698 688 685 685 679 682 680 678 677 680 682 682 682 681 680 680 679
789 783 778 775 769 761 754 748 745 743 742 734 733 740 731 723 709 702 696 696 682 673 671 668 666 667 670 674 681 685 697 713 717 719 713 707 701 697 687 683 682 682 683 683 683 683 684 686 686 685 684 684 683 684
786 778 777 773 766 757 752 746 742 741 736 734 735 738 730 725 717 705 693 687 674 668 665 668 675 680 691 698 700 707 712 718 715 713 712 708 705 696 694 693 692 691 692 693 692 690 691 690 690 690 689 688 688 689
784 779 776 770 763 755 752 748 743 735 734 737 744 735 736 732 728 719 704 697 687 681 684 685 701 712 713 717 718 723 729 727 724 720 719 715 711 705 702 700 698 698 698 700 698 698 696 693 694 693 693 694 695 694
783 780 775 771 764 757 753 750 747 741 747 750 749 746 741 737 732 722 716 708 700 699 700 705 709 720 723 723 725 732 729 727 725 724 723 719 711 708 708 708 707 705 705 704 703 705 704 703 702 702 702 702 700 699
782 778 774 772 769 765 760 754 754 753 755 755 756 752 747 742 738 733 728 725 720 717 713 722 734 743 744 744 744 739 736 736 735 730 724 719 715 712 711 710 709 709 709 709 709 710 711 711 713 712 710 708 707 708
780 778 775 772 770 768 760 759 756 756 761 762 760 757 754 750 747 743 741 737 733 731 734 744 753 755 753 751 746 742 736 734 736 733 730 725 719 717 716 717 716 716 716 717 717 718 720 720 720 719 717 716 713 712
778 778 773 772 770 768 765 764 761 762 762 764 761 762 761 756 755 755 753 751 748 749 753 755 755 755 754 751 748 745 740 736 736 735 733 730 726 723 721 720 721 722 723 723 724 725 725 726 725 723 721 719 718 718
781 778 775 771 769 768 767 764 765 763 763 761 761 762 765 765 764 765 764 761 763 766 763 761 759 757 756 755 755 752 749 744 742 738 736 733 731 729 728 726 726 726 727 729 730 730 729 728 726 724 722 721 720 719
782 780 775 770 769 776 774 762 763 761 766 766 764 766 768 768 771 770 775 776 774 772 769 766 763 763 762 761 759 757 754 751 748 745 743 740 738 737 738 738 739 738 737 738 736 735 734 732 732 730 726 724 722 722
784 783 777 774 770 776 764 764 758 759 759 767 771 774 774 774 773 777 784 783 782 778 775 774 772 770 767 765 764 764 763 761 757 754 752 747 744 746 747 749 749 748 748 746 744 742 741 738 736 735 733 732 731 731
791 786 782 788 771 765 766 761 760 760 766 759 767 781 783 781 785 785 788 791 787 786 783 779 777 774 772 769 767 769 770 770 768 764 762 756 753 753 752 754 757 758 756 753 751 749 748 746 744 744 742 740 738 734
795 774 782 769 767 767 766 768 766 765 765 767 768 772 777 783 790 801 803 798 792 788 786 785 780 776 775 775 776 777 777 776 776 775 771 767 764 764 764 764 764 765 763 759 757 755 754 753 752 750 747 745 743 742
792 793 774 767 773 772 767 765 764 766 769 772 771 768 772 787 797 799 799 793 790 788 786 785 782 781 781 780 781 782 782 782 784 783 779 776 775 774 774 772 772 771 767 765 764 761 760 759 758 755 753 752 751 750
796 798 790 780 773 769 772 772 772 773 772 767 769 777 784 788 796 794 793 790 789 786 785 783 784 784 784 784 784 785 785 786 788 786 782 781 780 779 778 776 774 772 769 767 765 763 763 761 760 758 757 757 756 755
787 785 785 776 771 770 772 776 778 778 777 771 777 785 790 792 794 792 791 788 785 784 785 785 786 787 788 788 788 788 789 790 791 791 788 786 785 784 782 779 777 775 773 770 768 767 766 764 763 762 761 760 759 758
776 777 774 768 771 776 777 776 779 779 782 783 785 790 792 793 794 792 790 787 785 784 786 786 787 788 790 791 792 792 793 795 796 797 795 792 790 788 785 783 780 778 776 774 771 769 768 766 765 764 763 762 760 759
764 765 760 764 769 772 772 775 777 778 779 782 784 788 790 793 795 792 790 789 787 787 787 787 787 789 791 792 793 794 795 797 797 797 797 795 793 791 789 786 784 781 778 775 773 772 770 768 767 766 764 762 761 759
755 755 757 763 768 768 769 770 774 776 777 779 784 786 790 795 794 791 791 789 788 788 789 791 790 792 793 794 795 795 795 796 797 797 797 796 794 793 791 788 786 783 780 777 775 773 772 770 769 767 765 763 761 759
752 751 753 754 762 765 767 769 771 772 776 781 780 783 786 789 790 790 791 790 791 791 793 794 793 794 795 796 796 795 795 795 795 795 795 794 793 792 791 789 787 785 781 779 777 775 773 772 770 768 767 765 763 760